This is the latest recevied weather packets stored in our database for station/object KD4EG. If no packets are shown the sender has not sent any weather packets the latest 10 day(s).
| Time | Temp. | Humidity | Pressure | Rain* | Wind** | Luminosity | Snow |
|---|---|---|---|---|---|---|---|
| 1788471645 | 35° C | 52% | 1018.1 hPa | 0 mm | - | 58 W/m² | - |
| 1788471340 | 35.56° C | 50% | 1018.1 hPa | 0 mm | - | 74 W/m² | - |
| 1788471036 | 35.56° C | 50% | 1017.7 hPa | 0 mm | - | 224 W/m² | - |
| 1788470732 | 35° C | 51% | 1017.9 hPa | 0 mm | - | 265 W/m² | - |
| 1788470427 | 35.56° C | 51% | 1017.9 hPa | 0 mm | - | 278 W/m² | - |
| 1788470122 | 35.56° C | 50% | 1018.1 hPa | 0 mm | - | 298 W/m² | - |
| 1788469818 | 35.56° C | 51% | 1018 hPa | 0 mm | - | 315 W/m² | - |
| 1788469513 | 35° C | 50% | 1017.9 hPa | 0 mm | - | 321 W/m² | - |
| 1788469209 | 35.56° C | 50% | 1018.2 hPa | 0 mm | - | 87 W/m² | - |
| 1788468902 | 35° C | 50% | 1018.2 hPa | 0 mm | - | 123 W/m² | - |
| 1788468596 | 35.56° C | 50% | 1018.3 hPa | 0 mm | - | 367 W/m² | - |
| 1788468293 | 35.56° C | 50% | 1018.3 hPa | 0 mm | - | 398 W/m² | - |
| 1788467988 | 35.56° C | 50% | 1018.1 hPa | 0 mm | - | 422 W/m² | - |
| 1788467684 | 36.11° C | 50% | 1018.2 hPa | 0 mm | - | 449 W/m² | - |
| 1788467382 | 36.67° C | 48% | 1018.3 hPa | 0 mm | - | 505 W/m² | - |
| 1788467079 | 36.11° C | 48% | 1018.5 hPa | 0 mm | - | 498 W/m² | - |
| 1788466773 | 36.67° C | 46% | 1018.6 hPa | 0 mm | - | 527 W/m² | - |
| 1788466469 | 36.11° C | 47% | 1018.6 hPa | 0 mm | - | 515 W/m² | - |
| 1788466167 | 36.11° C | 47% | 1018.8 hPa | 0 mm | - | 558 W/m² | - |
| 1788465862 | 36.67° C | 47% | 1018.7 hPa | 0 mm | - | 545 W/m² | - |
| 1788465558 | 36.67° C | 46% | 1018.5 hPa | 0 mm | - | 550 W/m² | - |
| 1788465254 | 35.56° C | 47% | 1018.7 hPa | 0 mm | - | 565 W/m² | - |
| 1788464948 | 36.67° C | 46% | 1018.6 hPa | 0 mm | - | 595 W/m² | - |
| 1788464644 | 35.56° C | 48% | 1018.7 hPa | 0 mm | - | 559 W/m² | - |
| 1788464339 | 35° C | 49% | 1018.8 hPa | 0 mm | - | 169 W/m² | - |
* Rain latest hour (hover to see other rain measurements)
** Current wind speed in m/s (hover to see current wind gust speed)